SCP
0 0 0 0 0 0 0 0 0 0 0 0 0 0 0 0 0 0 0 0 0 0 0 0 0 0 0 0 0 0 0 0 0 0 0 0 0 0 0 0 0 0 0 0
0 0 0 0 0 0 0 0 0 0 0 0 0 0 0 0 0 0 0 0 0 0 0 0 0 0 0 0 0 0 0 0 0 0 0 0 0 0 0 0 0 0 0 0
0 0 0 0 0 0 0 0 0 0 0 0 0 0 0 0 0 0 0 0 0 0 0 0 0 0 0 0 0 0 0 0 0 0 0 0 0 0 0 0 0 0 0 0
0 0 0 0 0 0 0 0 0 0 0 0 0 0 0 0 0 0 0 0 0 0 0 0 0 0 0 0 0 0 0 0 0 0 0 0 0 0 0 0 0 0 0 0
0 0 0 0 0 0 0 0 0 0 0 0 0 0 0 0 0 0 0 0 0 0 0 0 0 0 0 0 0 0 0 0 0 0 0 0 0 0 0 0 0 0 0 0
0 0 0 0 0 0 0 0 0 0 0 0 0 0 0 0 0 0 0 0 0 0 0 0 0 0 0 0 0 0 0 0 0 0 0 0 0 0 0 0 0 0 0 0
0 0 0 0 0 0 0 0 0 0 0 0 0 0 0 0 0 0 0 0 0 0 0 0 0 0 0 0 0 0 0 0 0 0 0 0 0 0 0 0 0 0 0 0
0 0 0 0 0 0 0 0 0 0 0 0 0 0 0 0 0 0 0 0 0 0 0 0 0 0 0 0 0 0 0 0 0 0 0 0 0 0 0 0 0 0 0 0
0 0 0 0 0 0 0 0 0 0 0 0 0 0 0 0 0 0 0 0 0 0 0 0 0 0 0 0 0 0 0 0 0 0 0 0 0 0 0 0 0 0 0 0
0 0 0 0 0 0 0 0 0 0 0 0 0 0 0 0 0 0 0 0 0 0 0 0 0 0 0 0 0 0 0 0 0 0 0 0 0 0 0 0 0 0 0 0
0 0 0 0 0 0 0 0 0 0 0 0 0 0 0 0 0 0 0 0 0 0 0 0 0 0 0 0 0 0 0 0 0 0 0 0 0 0 0 0 0 0 0 0
0 0 0 0 0 0 0 0 0 0 0 0 0 0 0 0 0 0 0 0 0 0 0 0 0 0 0 0 0 0 0 0 0 0 0 0 0 0 0 0 0 0 0 0
0 0 0 0 0 0 0 0 0 0 0 0 0 0 0 0 0 0 0 0 0 0 0 0 0 0 0 0 0 0 0 0 0 0 0 0 0 0 0 0 0 0 0 0
0 0 0 0 0 0 0 0 0 0 0 0 0 0 0 0 0 0 0 0 0 0 0 0 0 0 0 0 0 0 0 0 0 0 0 0 0 0 0 0 0 0 0 0
0 0 0 0 0 0 0 0 0 0 0 0 0 0 0 0 0 0 0 0 0 0 0 0 0 0 0 0 0 0 0 0 0 0 0 0 0 0 0 0 0 0 0 0
0 0 0 0 0 0 0 0 0 0 0 0 0 0 0 0 0 0 0 0 0 0 0 0 0 0 0 0 0 0 0 0 0 0 0 0 0 0 0 0 0 0 0 0
0 0 0 0 0 0 0 0 0 0 0 0 0 0 0 0 0 0 0 0 0 0 0 0 0 0 0 0 0 0 0 0 0 0 0 0 0 0 0 0 0 0 0 0
0 0 0 0 0 0 0 0 0 0 0 0 0 0 0 0 0 0 0 0 0 0 0 0 0 0 0 0 0 0 0 0 0 0 0 0 0 0 0 0 0 0 0 0
0 0 0 0 0 0 0 0 0 0 0 0 0 0 0 0 0 0 0 0 0 0 -0 -0 -0 -0 -0 -0 0 0 0 0 0 0 0 0 0 0 0 0 0 0 0 0
0 0 0 0 0 0 0 0 0 0 0 0 0 0 0 0 0 0 0 0 0 -0 -0 -0 -0 -0 -0 -0 -0 -0 0 0 0 0 0 0 0 0 0 0 0 0 0 0
0 0 0 0 0 0 0 0 0 0 0 0 0 0 0 0 0 0 0 0 0 0 0 0 0 0 0 -0 -0 -0 -0 -0 0 0 0 0 0 0 0 0 0 0 0 0
0 0 0 0 0 0 0 0 0 0 0 0 0 0 0 0 0 0 0 0 0 0 0 0 0 0 0 0 0 -0 -0 -0 -0 0 0 0 0 0 0 0 0 0 0 0
0 0 0 0 0 0 0 0 0 0 0 0 0 0 0 0 0 0 0 0 0 0 0 0 0 0 0 0 0 0 -0 -0 -0 0 0 0 0 0 0 0 0 0 0 0
0 0 0 0 0 0 0 0 0 0 0 0 0 0 0 0 0 0 0 0 0 0 0 0 0 0 0 0 0 0 0 0 -0 -0 0 0 0 0 0 0 0 0 0 0
0 0 0 0 0 0 0 0 0 0 0 0 0 0 0 0 0 0 0 0 0 0 0 0 0 0 0 0 0 0 0 0 -0 -0 -0 0 0 0 0 0 0 0 0 0
0 0 0 0 0 0 0 0 0 0 0 0 0 0 0 0 0 0 0 0 0 0 0 0 0 0 0 0 0 0 0 0 -0 -0 -0 0 0 0 0 0 0 0 0 0
Wind_Speed
3 4 9 16 17 12 7 9 14 15 11 7 14 19 17 16 16 20 20 20 24 23 21 16 9 9 10 11 13 16 17 16 14 14 13 12 13 12 11 10 11 12 11 11
4 9 18 9 3 5 7 12 18 15 8 7 14 21 14 14 17 20 23 25 23 15 18 17 8 6 9 11 14 14 15 16 18 15 13 7 6 6 7 6 7 9 11 12
13 9 6 6 7 8 9 11 14 14 9 7 13 15 11 12 12 14 19 23 16 15 20 19 9 7 9 10 13 14 16 16 16 12 7 6 5 4 5 7 9 11 13 14
8 6 3 5 8 10 15 12 13 12 9 7 3 15 5 11 10 14 19 15 13 13 12 12 10 9 10 11 10 11 11 12 14 15 15 17 14 13 15 12 11 12 14 15
7 4 4 8 12 11 14 6 5 6 6 7 3 11 11 6 8 15 14 11 9 8 8 11 11 11 10 7 8 10 11 12 14 16 17 17 14 10 6 6 9 9 8 10
8 4 7 10 7 9 5 2 3 4 2 10 7 10 13 6 10 10 9 7 7 9 11 12 10 9 7 3 3 7 10 11 12 13 13 15 13 10 11 9 11 10 7 7
6 5 5 4 3 2 5 4 3 5 2 11 3 7 13 8 8 5 7 9 10 9 10 12 14 14 10 4 0 3 7 9 11 12 13 13 12 12 15 13 14 13 9 9
5 10 7 6 9 8 7 10 9 8 8 8 3 11 13 8 7 7 7 7 7 9 9 11 11 10 8 4 1 4 7 8 10 12 11 10 10 8 8 10 10 13 12 12
7 10 4 5 6 8 7 9 8 6 5 8 10 11 15 8 9 8 5 4 7 9 10 11 12 10 8 5 3 3 6 7 10 11 10 10 11 11 10 10 9 9 8 9
6 10 6 3 2 4 8 4 4 5 6 9 10 12 14 20 12 7 6 9 10 10 10 13 14 14 11 7 5 5 6 6 5 7 9 9 12 12 10 10 12 11 10 10
6 8 7 3 8 9 6 6 7 7 6 7 9 9 10 15 11 9 10 14 16 17 17 17 16 15 14 12 9 7 6 6 6 6 7 8 7 8 8 9 12 11 11 12
7 6 10 11 8 5 7 10 10 9 11 9 8 9 9 10 14 17 18 19 18 18 16 15 14 14 15 16 15 14 10 8 8 7 8 9 8 7 8 11 11 12 14 15
1 4 6 5 5 2 2 3 3 6 7 10 13 11 5 12 16 16 16 17 17 18 19 18 17 16 15 14 12 12 12 11 10 10 10 10 9 10 13 14 11 11 13 15
6 6 11 17 15 9 11 12 10 11 12 14 15 17 11 13 14 14 14 16 16 17 17 18 18 17 16 14 13 13 12 11 12 11 10 11 11 13 15 13 11 13 13 14
1 8 11 15 13 10 13 16 15 17 17 17 18 18 5 5 9 11 10 13 16 17 18 18 17 16 18 18 17 16 15 15 15 15 13 11 10 10 11 11 12 13 14 16
1 5 4 9 10 10 17 19 21 23 19 16 18 7 4 3 6 9 7 10 13 14 14 14 15 16 18 19 18 18 17 16 16 16 15 15 13 10 9 10 10 12 14 13
3 4 5 9 10 9 14 14 17 13 4 3 5 3 1 3 7 10 8 8 11 13 12 12 13 14 14 16 15 16 15 14 13 14 14 15 15 14 11 9 9 12 13 14
8 6 4 5 4 13 9 3 3 5 5 5 6 2 5 7 7 9 4 4 8 10 10 10 11 12 13 12 13 14 14 13 12 12 12 13 15 14 12 9 9 10 9 12
14 10 6 5 7 10 3 1 1 2 5 6 3 5 7 6 6 5 1 4 7 8 8 9 9 11 13 13 13 14 15 14 14 13 14 14 14 14 12 9 8 7 7 10
2 8 8 5 6 9 5 3 3 3 5 7 5 7 7 5 5 6 6 7 8 9 8 8 9 9 10 11 11 13 14 14 13 14 15 15 13 13 13 10 8 6 7 9
1 2 4 6 6 10 7 3 1 2 7 7 7 9 9 7 8 9 10 9 9 10 10 10 9 9 10 9 9 13 14 13 12 13 15 15 13 12 12 10 6 5 6 6
6 4 4 4 3 10 5 1 4 9 6 6 9 11 12 11 11 11 12 12 11 11 13 12 10 13 11 9 8 13 14 12 12 14 15 15 15 12 9 9 7 6 7 7
6 8 7 10 10 8 6 9 10 7 9 9 10 11 10 11 12 12 12 13 13 14 14 11 11 15 16 11 8 13 14 10 12 15 16 16 16 14 10 10 9 7 8 8
7 5 7 9 13 14 15 14 12 11 13 12 9 7 7 10 12 12 13 15 15 14 14 12 12 15 18 14 10 11 11 9 11 15 17 16 15 16 12 9 9 9 9 11
10 7 7 12 15 13 14 14 12 12 8 5 4 4 6 9 12 12 13 15 16 16 15 12 13 16 20 18 16 12 10 10 13 17 17 16 14 15 14 10 10 12 12 13
10 10 11 15 17 13 11 8 4 3 3 2 4 7 7 9 13 15 15 16 16 17 16 16 16 18 20 18 19 14 10 10 15 19 18 14 12 12 13 11 11 20 20 22
Wind_Direction
122 125 206 217 208 220 240 255 260 256 264 277 259 263 264 267 273 277 276 272 270 273 275 275 257 227 219 211 202 200 197 193 178 179 181 182 191 188 189 191 187 182 173 168
88 225 227 226 199 226 253 269 271 277 267 255 271 272 267 251 250 255 265 270 272 281 287 283 271 233 220 212 204 200 198 190 188 191 189 180 163 177 183 175 175 174 169 169
204 234 215 214 233 239 237 234 258 265 299 297 292 280 233 249 250 257 258 262 276 276 280 290 304 254 233 222 207 202 197 190 190 178 158 125 106 103 152 180 184 184 177 175
241 278 197 188 223 215 257 233 247 274 299 287 313 297 214 230 255 264 263 268 272 274 280 288 297 279 244 228 206 200 188 185 181 172 178 177 185 188 192 187 185 183 181 177
248 237 196 214 226 208 240 258 253 266 262 286 187 271 280 200 244 261 267 272 282 300 304 301 300 286 270 240 195 182 174 181 182 185 187 190 197 195 164 157 165 173 178 178
249 238 204 217 228 212 223 89 39 45 40 282 202 223 283 187 218 249 272 294 323 324 319 315 317 310 305 312 198 171 170 175 178 188 192 198 198 177 162 168 171 173 173 180
282 255 242 208 223 184 150 141 339 324 267 253 204 227 261 247 244 249 289 307 311 317 323 330 342 342 332 336 177 168 167 169 176 190 198 201 198 190 189 182 179 176 176 187
276 280 230 207 202 195 183 163 187 219 234 266 238 242 257 242 272 272 269 276 304 326 335 340 344 343 340 333 180 173 179 180 182 194 202 198 194 194 197 191 186 186 190 190
227 257 240 212 211 165 167 204 207 214 250 273 269 273 295 266 272 271 275 326 343 334 334 343 353 358 355 339 299 241 212 200 193 195 196 199 197 196 192 186 188 193 192 179
218 264 268 258 168 222 189 178 125 179 217 232 243 264 272 290 296 294 323 341 332 330 342 0 10 8 2 353 337 320 300 285 263 223 211 211 208 205 194 183 193 194 187 179
209 240 273 269 214 215 191 187 199 211 208 223 237 238 252 281 327 359 347 348 357 8 14 16 15 15 15 10 358 338 317 305 297 280 265 255 241 220 204 200 199 191 182 180
211 228 244 245 249 235 236 228 213 230 243 236 250 250 281 319 11 24 22 18 16 13 9 5 5 8 15 18 13 3 345 324 297 272 249 237 237 231 225 222 209 193 188 185
214 248 274 281 293 26 291 300 288 285 275 260 264 268 285 27 34 31 21 12 6 4 3 1 1 3 5 6 8 5 358 349 327 298 270 249 227 217 223 225 217 207 199 192
304 239 251 266 274 295 290 287 279 273 272 273 268 280 306 4 3 3 12 11 4 360 358 356 355 355 356 356 358 356 349 349 344 330 297 266 242 228 228 223 211 204 201 202
257 258 261 269 278 282 284 285 280 272 271 276 283 289 347 7 351 348 360 2 358 354 351 350 349 347 348 348 349 349 346 347 342 340 334 309 273 248 236 226 215 206 203 203
302 270 290 279 276 277 278 271 268 271 269 262 267 262 83 326 337 341 335 342 345 343 340 341 342 343 341 340 340 340 342 342 339 339 339 336 323 291 258 240 222 209 205 200
221 229 251 265 281 296 262 249 251 250 262 278 255 117 256 303 324 320 307 328 339 335 333 334 334 334 331 331 332 332 331 331 334 333 334 339 337 322 293 259 230 217 209 202
233 229 245 268 304 247 242 28 49 109 97 105 107 183 253 271 281 283 267 331 323 318 317 318 319 321 322 320 323 326 326 327 327 326 330 335 335 326 309 280 247 229 213 209
218 214 214 225 236 264 238 53 40 172 182 160 181 249 263 285 288 259 224 308 293 291 297 305 307 309 313 315 321 326 326 326 325 326 329 329 326 318 309 287 260 235 218 217
203 213 219 214 218 238 228 184 242 186 228 197 217 246 250 266 292 270 270 283 291 286 290 294 294 294 295 301 313 318 316 317 319 322 321 316 311 306 300 285 263 238 225 221
40 92 198 213 233 261 256 246 45 183 245 215 237 240 231 225 240 265 285 289 281 285 289 290 287 286 284 292 305 304 302 303 309 314 311 308 304 298 292 282 257 236 227 216
193 196 212 161 207 261 249 237 221 229 241 239 245 239 235 242 256 267 277 282 283 287 288 286 286 289 287 282 284 288 290 298 308 308 305 307 306 298 286 274 255 228 220 218
218 197 187 190 218 244 236 240 254 259 262 258 246 241 241 257 267 272 277 281 283 282 282 282 282 286 288 283 272 281 293 306 307 304 303 304 303 293 274 259 249 225 211 216
241 220 231 251 260 260 261 266 276 275 267 269 255 246 246 259 272 280 284 286 287 287 284 285 283 284 287 289 282 283 298 305 302 299 298 297 296 292 276 251 240 230 217 213
221 210 226 248 261 264 261 262 265 269 269 266 269 253 264 277 280 283 284 284 285 287 289 289 287 288 290 296 296 299 305 306 299 295 292 290 285 283 278 254 237 232 230 223
218 219 235 251 257 257 263 263 266 264 278 308 305 294 285 281 283 286 284 286 290 291 295 297 296 294 295 298 297 300 303 297 292 291 288 285 282 281 277 265 254 244 239 238